[Date Prev][Date Next][Thread Prev][Thread Next][Date Index][Thread Index]
[jamsat-news:969] jas2info #105
=========================   最新情報   ==============================
        Last updated :Sat.21-Nov.-98 17:00 (JST) #105
====================================================================
   
     衛星情報 FOシリーズの軌道要素、テレメトリ、QSOの状況等をま
   とめてみました.アンテナ整備をしておりますのでテレメトリーのテスト
   データを取りましたので投稿します.
  1)FO−29(ふじ3号)は11月21日 (土)の15:53(JST)の
     パスではJAアナログモードで運用されており、力強いRS59+で
     安定したテレメトリを送信しておりました.
         
 ■ 軌道要素1:「jamsatーkeps:833」より
                 SB KEPS @ AMSAT  $ORB98324.N
                 2Line Orbital Elements 98324.AMSAT
  HR AMSAT ORBITAL ELEMENTS FOR AMATEUR SATELLITES IN NASA FORMAT
  FROM WA5QGD FORT WORTH,TX November 20, 1998
  SEND SUBSCRIBE/UNSUBSCRIBE TO majordomo@amsat.org ONLY
  BID: ORB98324.N
  
  DECODE 2-LINE ELSETS WITH THE FOLLOWING KEY:
  1 AAAAAU 00  0  0 BBBBB.BBBBBBBB  .CCCCCCCC  00000-0  00000-0 0  DDDZ
  2 AAAAA EEE.EEEE FFF.FFFF GGGGGGG HHH.HHHH III.IIII JJ.JJJJJJJJKKKKKZ
  KEY: A-CATALOGNUM B-EPOCHTIME C-DECAY D-ELSETNUM E-INCLINATION F-RAAN
  G-ECCENTRICITY H-ARGPERIGEE I-MNANOM J-MNMOTION K-ORBITNUM Z-CHECKSUM
 TO ALL RADIO AMATEURS BT
  FO-29
  1 24278U 96046B   98322.99344128 -.00000042  00000-0 -34192-5 0  2054
  2 24278  98.5271 297.5449 0350861 278.7071  77.4473 13.52653265111397
 ■ 軌道要素2:「jamsatーkeps:834」より
                 SB KEPS @ AMSAT  $ORB98324.O
                 Orbital Elements  98324.OSCAR
  HR AMSAT ORBITAL ELEMENTS FOR OSCAR SATELLITES
  FROM WA5QGD FORT WORTH,TX November 20, 1998
  SEND SUBSCRIBE/UNSUBSCRIBE TO majordomo@amsat.org ONLY
  BID: ORB98324.O
  TO ALL RADIO AMATEURS BT
 Satellite: FO-29
 Catalog number: 24278
 Epoch time:      98322.99344128
 Element set:     205
 Inclination:       98.5271 deg
 RA of node:       297.5449 deg
 Eccentricity:    0.0350861
 Arg of perigee:   278.7071 deg
 Mean anomaly:      77.4473 deg
 Mean motion:   13.52653265 rev/day
 Decay rate:       -4.2e-07 rev/day^2
 Epoch rev:           11139
 Checksum:              335
 -----------------------------------------------------------
  1 )FO−29(ふじ3号)の 11月21日(土)はJAアナログモードで
     運用され、ビーコン波にのったテレメトリの一部分は次のようにな
     っていました.
  					
  AS11171C1  21NOV98
  JST 15:53 - 16:12
                                                      B0 76 87 84 8F 8E 86 
HI HI AE C7 88 55 00 87 06 08 09 58 94 7C 6C 60 94 92 B0 6D 87 84 8F 8E 86 
HI HI AE C7 88 55 00 87 06 08 09 58 94 7B 6B 60 94 92 B0 79 87 84 8F 8E 86 
HI HI AE C7 88 55 00 87 06 08 09 58 95 7B 67 60 94 92 B0 68 87 84 8F 8E 86 
HI HI AE C7 88 55 00 87 06 08 09 58 95 7A 64 61 94 92 B0 76 87 84 8F 8E 86 
HI HI AE C7 88 55 00 87 06 08 09 58 96 7A 63 61 94 92 B0 74 87 84 8F 8E 86 
HI HI AE C7 88 55 00 87 06 08 09 58 96 7B 5E 60 94 92 B0 75 87 84 8F 8E 86 
HI HI AE C7 88 55 00 87 06 08 09 58 97 7C 5F 60 94 92 B0 8F 87 84 8F 8E 87 
HI HI AE C7 88 55 00 87 06 08 09 58 97 7E 59 61 94 92 B0 95 87 84 8F 8E 86 
HI HI AE C7 88 55 00 87 06 08 09 58 98 80 55 61 94 92 B0 6B 87 84 8E 8E 86 
HI HI AE C7 88 55 00 87 06 08 09 58 98 82 55 60 94 92 B0 6B 88 84 8E 8E 86 
HI HI AE C7 88 55 00 87 06 08 09 58 98 85 55 61 94 92 B0 8D 88 84 8E 8E 86 
HI HI AE C7 88 55 00 87 06 08 09 58 98 88 55 61 94 92 B0 7F 88 84 8E 8E 86 
HI HI AE C7 88 55 00 87 06 08 09 58 97 8B 5C 61 94 92 B0 6C 88 84 8E 8E 86 
HI HI AE C7 88 55 00 87 06 08 09 58 96 8E 5F 61 94 92 B0 93 88 84 8E 8E 86 
HI HI AE C7 88 55 00 87 06 08 09 58 94 91 5F 61 94 92 B0 8F 88 84 8E 8E 86 
HI HI AE C7 88 55 00 87 06 08 09 58 91 94 64 61 94 92 B0 79 88 84 8E 8E 86 
HI HI AE C7 88 55 00 87 06 08 09 58 8E 97 67 61 94 92 B0 79 88 84 8E 8E 86 
HI HI AE C7 88 55 00 87 06 08 09 58 89 99 66 61 94 92 B0 8F 88 84 8E 8E 86 
HI HI AE C7 88 55 00 87 06 08 09 58 85 9A 6B 61 94 92 B0 71 88 84 8E 8E 86 
HI HI AE C7 88 55 00 87 06 08 09 58 80 9B 6C 61 94 92 B0 70 88 84 8E 8E 86 
HI HI AE C7 88 55 00 87 06 08 09 58 7A 9C 70 61 94 92 B0 AC 88 85 8E 8D 86 
HI HI AE C7 88 55 00 87 06 08 09 58 74 9C 73 61 94 92 B0 76 88 85 8E 8D 86 
 
 2 ) JAアナログCWテレメトリの換算値例
	FO−29(ふじ3号)	
       (上記テレメトリの最初の一行を換算)
  
  テレメトリ   内   容          換算値  単位
   3C	磁気センサーZ軸	=	72549.0	nT
  3D	磁気センサX軸	=	60784.3	nT
  4A	太陽電池発生電流	=	 1058.8	mA
  4B	B充放電電流	=	 -118.4	mA
  4C	B端子電圧	=	   15.9	V
  4D	B中間端子電圧	=	    7.0	V
  5A	バス電圧 	=	   17.3	V
  5B	JTA送信電力	=	  610.4	mW
  5C 	構体温度1	=	   29.5	℃
  5D	構体温度2	=	   30.6	℃
  6A	構体温度3	=	   26.3	℃
  6B	構体温度4	=	   26.7	℃
  6C	Bセル温度	= 	   29.8	℃  
   
   *計算処理は OFFICE 97 を使用.
   
 ==========================================================================  
  3)FO−20(ふじ 2号)のCWテレメトリは11月7日(土)10:22(JS
      T)のパスでも切れ目の無い連続音になっいました.
 -------------------------------------------------------------------------- 
 
 ■ 軌道要素1 :出典は「ふじ3号」に同じ.
 
  FO-20
  1 20480U 90013C   98323.21882870 -.00000004  00000-0  73513-4 0   964
  2 20480  99.0493 192.7079 0540141 280.3896  73.6779 12.83247914411406
  ■ 軌道要素2 :出典は「ふじ3号」に同じ.  
               
  Satellite: FO-20
  Catalog number: 20480
  Epoch time:      98323.21882870
  Element set:      96
  Inclination:       99.0493 deg
  RA of node:       192.7079 deg
  Eccentricity:    0.0540141
  Arg of perigee:   280.3896 deg
  Mean anomaly:      73.6779 deg
  Mean motion:   12.83247914 rev/day
  Decay rate:       -4.0e-08 rev/day^2
  Epoch rev:           41140
  Checksum:              319
  
  =========================   JARL運用情報   =========================
  *JARL のホームページに運用の予定が記載されていましたのでご紹介します.
        ■ ふじ3号/FO−29 ■  
  QTC ! 
  太陽活動の活性化に伴い衛星のコンピュータメモリーに2bitエラーが頻繁に発生し
  ています。このためソフトウエアーのハングアップや誤動作が発生しています。
  2bitエラーの発生頻度を調査するためにしばらくの間、アナログ系運用を行います。
  衛星のユーザーのみなさまでCWテレメトリの2Aの値が00から変化していることを確
  認された方はJARL技術課まで連絡をお願いいたします。
   CWテレメトリの2Aの位置はHI HIから5つ目の2桁の数値です。通常は00を示し
  ています。
    8月中旬から「ふじ3号」は全日照になりました。今回の全日照は12月までの約3ヶ
  月間です。
    8月の日陰期間にコマンドやプログラムの実行率が上がりました。12月以降の日陰
  期間に入ればデジタル系の運用が行えると考えられます。1年ぶりとなりますがデジ
  トーカーの運用も計画していますのでご期待下さい。
 連絡先 : lab@jarl.or.jp
 以後の運用に付きましては11月20日18時頃にお知らせいたします。 
         ■ ふじ2号/FO−20 ■      
            「ふじ2号」 現況                                                                                               
   JAS-1b/FO-20(ふじ2号)の不具合発生について
    JAS-1b(ふじ2号)のCWテレメトリ信号に,1997年10月12日12時
 (JST)の日本上空通過時,3桁の数字が繰り返されるはずが3個の長音の
  繰り返しとなっているという異常が発見されました。この不具合は次の通過時
  からは回復していましたが13日15時20分の通過時に再び観測されました。
  衛星のアナログ系中継モード動作は異常が無く,正常時のテレメトリ内容からは
  衛星の動作に異常は認められません。従って,直ちに衛星のミッションに影響す
  ることは無いと予想されますので,当面はアナログ系中継モードを継続します。
  衛星は既に打ち上げてから7年8ヶ月を経ておりますので,今後は監視を強化す
  る予定です。アマチュア各位のレポートをお待ちします.   
  
  以上  http://www.jarl.or.jp/Japanese/3_Fuji/jr1nvu.htm  より.
                                           
   =============   JAS-2 (ふじ3号)と現在までの情報   ===========  
  A.電話によるふじ3号の運用情報
      社団法人日本アマチュア連盟によるサービス
           TEL .   03− 3942 − 1000
  B.アマチュア無線FAXサービス
      JARLによるふじ3号の軌道情報(オービットカレンダー)
         FAX No.  03− 3233 −0055
  C.WWWブラウザで情報を簡単に見れる人のためにJAS−2
     ふじ3号の衛星としての運用されるまでの名前)の概要、打ち上げ
     までの状況、運用中における状況を説明したホームページを紹介し
     ておきます.
    1)社団法人日本アマチュア無線連盟(JARL)のホームページ
          http://www.jarl.or.jp/Japanese/3_Fuji/jr1nvu.htm
 
    2)宇宙開発事業団(NASDA)ホームページ 
          http://www.nasda.go.jp/
         打上げ衛星 :地球観測プラットフォーム技術衛星(ADEOS) 
                       アマチュア衛星3号(JAS-2)
          http://yyy.tksc.nasda.go.jp/Home/Press/Press-j/jas-2_j.html        
  D.JAMSATによる軌道情報の活用
        JAMSATのホームページまたはjamsat−kepsの軌道要素より
      衛星の軌道情報を得る.
     JAMSATホームページ
               URL    http://www.jamsat.or.jp
       上記ホームページでは各地で行われるアマチュア通信衛星に関する
      ミューティングのお知らせや世界のアマチュア衛星に関する情報が
      満載されています.
   
 =========================================================================
       JAMSATのメンバーのご協力によりJH6MME(高山 秀造)が
    執筆・編集を担当しております.ご指摘の意見、疑問やこのようにしたら
    というアイデアがありましたら小さなことでもかまいませんので気軽に下
    記アドレスまでご連絡ください.jamsat−newsからjas2
    infoへの転載をJH4PHW局坂井さんに担当して頂いております.
                    Eーmail : jh6mme@jamsat.or.jp : jh4phw@jamsat.or.jp
 ===============================   END  ===============================